Tracking 17694 objects as of 26-May-2016
HD Live streaming from Space Station
objects crossing your sky now

MAQSAT H

Track MAQSAT H now!
10-day predictions
MAQSAT H is classified as:


NORAD ID: 25023
Int'l Code: 1997-066A
Perigee: 588.3 km
Apogee: 26,410.2 km
Inclination: 7.6 °
Period: 464.6 minutes
Semi major axis: 19870 km
RCS: 21.0323 m2 (large)
Launch date: October 30, 1997
Source: European Space Agency (ESA)
Launch site: FRENCH GUIANA (FRGUI)
Your satellite tracking list
Your tracking list is empty





NASA's NSSDC Master Catalog

Two Line Element Set (TLE):
1 25023U 97066A   16146.26791459 -.00000136 +00000-0 -87003-3 0  9994
2 25023 007.6415 235.7401 6497631 066.1578 346.6184 03.09954966209833
Source of the keplerian elements: AFSPC

N2YO: 602